Flag for U.S.A. Weather past 2 weeks in Denver, Colorado, U.S.A.

Now
73 °F

Passing clouds.


Feels Like: 77 °F
Forecast: 60 / 90 °F
Wind: 7 mph from South

Location: Buckley Air Force Base

Current Time: Jul 31, 2015 at 9:48:08 PM

Latest Report: Jul 31, 2015 at 8:58 PM


Visibility: 10 mi

Pressure: 30.04 "Hg (24.99 "Hg at 1593m altitude)

Humidity: 52%

Dew point: 54 °F

Location of DenverLocation

Historic Weather in Denver — Graph

°F

Denver temperature yesterday

Maximum temperature yesterday: 89 °F (at 4:58 PM)
Minimum temperature yesterday: 59 °F (at 5:58 AM)
Average temperature yesterday: 75 °F

Past Weeks' High & Low Weather Summary

 TemperatureHumidityPressure
High92 °F (Jul 27, 4:58 PM)100% (Jul 19, 2:58 AM)30.17 "Hg (Jul 19, 2:58 AM)
Low54 °F (Jul 19, 5:58 AM)15% (Jul 17, 12:58 PM)29.59 "Hg (Jul 27, 5:58 PM)
Average72 °F49%29.92 "Hg
* Reported Jul 16 8:58 PM — Jul 31 8:58 PM, Denver, Weather by CustomWeather, © 2015

Note: Actual official high and low records may vary slightly from our data, if they occured in-between our weather recording intervals... More about our weather records

Advertising

Denver weather history for previous 24 hours

 ConditionsComfort  
Time TempWeatherWind HumidityBarometerVisibility
8:58 PM
Fri, Jul 31
73 °FPassing clouds.7 mph52%30.04 "Hg10 mi
7:58 PM77 °FPassing clouds.12 mph40%30.03 "Hg10 mi
6:58 PM80 °FPassing clouds.13 mph34%30.03 "Hg10 mi
5:58 PM84 °FBroken clouds.16 mph32%30.02 "Hg10 mi
4:58 PM85 °FBroken clouds.13 mph29%30.03 "Hg10 mi
3:58 PM84 °FBroken clouds.10 mph29%30.04 "Hg10 mi
2:58 PM86 °FBroken clouds.13 mph26%30.04 "Hg10 mi
1:58 PM86 °FScattered clouds.9 mph26%30.04 "Hg10 mi
12:58 PM84 °FScattered clouds.8 mph27%30.08 "Hg10 mi
11:58 AM84 °FScattered clouds.12 mph30%30.10 "Hg10 mi
10:58 AM81 °FPassing clouds.7 mph37%30.13 "Hg10 mi
9:58 AM75 °FPassing clouds.2 mph47%30.15 "Hg10 mi
8:58 AM71 °FPassing clouds.3 mph57%30.16 "Hg10 mi
7:58 AM67 °FPassing clouds.2 mph69%30.16 "Hg10 mi
6:58 AM63 °FPassing clouds.2 mph74%30.14 "Hg10 mi
5:58 AM61 °FPassing clouds.5 mph75%30.14 "Hg10 mi
4:58 AM62 °FPassing clouds.6 mph77%30.11 "Hg10 mi
3:58 AM62 °FPassing clouds.8 mph73%30.11 "Hg10 mi
2:58 AM65 °FPassing clouds.6 mph66%30.11 "Hg10 mi
1:58 AM69 °FPassing clouds.15 mph59%30.11 "Hg10 mi
12:58 AM70 °FPassing clouds.17 mph56%30.11 "Hg10 mi
11:58 PM
Thu, Jul 30
70 °FPassing clouds.16 mph54%30.11 "Hg10 mi
10:58 PM72 °FPassing clouds.16 mph52%30.11 "Hg10 mi
9:58 PM73 °FPassing clouds.18 mph50%30.11 "Hg10 mi
Weather by CustomWeather, © 2015

See weather overviewHow to use our weather pages